This demonstration page uses our WeatherBlox Daily Observations layout. Learn more.

Left ArrowRight Arrow

40.92501, -98.34201

Hourly Observations for August 1, 2022

Temp ( °F °C ) Dew Point ( °F °C ) Humidity (%) Winds ( mph kmh ) Pressure ( in mb ) Visibility ( mi km ) Precip ( " mm )
12:53 am 00:53 Clear 74 23.3 69 20.6 85 85 SW 5 7 29.94 1014 10 16 0.00 0.00
1:53 am 01:53 Clear 73 22.8 69 20.6 87 87 Calm 29.95 1014 10 16 0.00 0.00
2:53 am 02:53 Clear 71 21.7 68 20 90 90 E 3 6 29.94 1014 9 14 0.00 0.00
3:53 am 03:53 Clear 71 21.7 68 20 90 90 S 5 7 29.94 1014 7 11 0.00 0.00
4:53 am 04:53 Clear with Mist and Fog 70 21.1 67 19.4 90 90 NE 5 7 29.95 1014 5 8 0.00 0.00
5:53 am 05:53 Clear 71 21.7 66 18.9 84 84 E 10 17 29.94 1014 10 16 0.00 0.00
6:53 am 06:53 Sunny 71 21.7 64 17.8 79 79 ESE 9 15 29.95 1014 10 16 0.00 0.00
7:53 am 07:53 Sunny 73 22.8 65 18.3 76 76 ESE 10 17 29.95 1014 10 16 0.00 0.00
8:53 am 08:53 Sunny 77 25 68 20 74 74 SE 10 17 29.94 1014 10 16 0.00 0.00
9:53 am 09:53 Sunny 82 27.8 71 21.7 69 69 S 9 15 29.94 1014 10 16 0.00 0.00
10:53 am 10:53 Sunny 85 29.4 72 22.2 65 65 SSE 6 9 29.94 1014 10 16 0.00 0.00
11:53 am 11:53 Sunny 87 30.6 73 22.8 63 63 Calm 29.93 1014 10 16 0.00 0.00
12:53 pm 12:53 Sunny 93 33.9 72 22.2 50 50 S 8 13 29.91 1013 10 16 0.00 0.00
1:53 pm 13:53 Sunny 95 35 71 21.7 46 46 SW 7 11 29.91 1013 10 16 0.00 0.00
2:53 pm 14:53 Sunny 95 35 72 22.2 47 47 SSW 6 9 29.90 1012 10 16 0.00 0.00
3:53 pm 15:53 Sunny 94 34.4 73 22.8 51 51 S 14 22 29.88 1012 10 16 0.00 0.00
4:53 pm 16:53 Sunny 95 35 72 22.2 47 47 S 12 19 29.87 1011 10 16 0.00 0.00
5:53 pm 17:53 Sunny 94 34.4 68 20 43 43 S 12 19 29.85 1011 10 16 0.00 0.00
6:53 pm 18:53 Sunny 91 32.8 72 22.2 54 54 SE 7 11 29.84 1011 10 16 0.00 0.00
7:53 pm 19:53 Sunny 88 31.1 72 22.2 59 59 S 7 11 29.83 1010 10 16 0.00 0.00
8:53 pm 20:53 Clear 83 28.3 74 23.3 74 74 SE 3 6 29.84 1010 10 16 0.00 0.00
9:53 pm 21:53 Clear 80 26.7 74 23.3 82 82 S 5 7 29.85 1011 10 16 0.00 0.00
10:53 pm 22:53 Clear 78 25.6 73 22.8 85 85 SSE 6 9 29.85 1011 10 16 0.00 0.00
11:53 pm 23:53 Clear 79 26.1 73 22.8 82 82 SSE 8 13 29.83 1010 10 16 0.00 0.00

Powered by AerisWeather